Probability
0 0 0 0 0 0 0 0 0 0 1 1 0 0 0 0 0 0 0 1 2 2 2 5 8 7 5 6 6 6 4 2 2 2 1 0 0 0 0 0 0 0 0 0 0 1 0 0 0
0 0 0 0 0 0 0 0 0 1 2 2 1 0 0 0 0 0 1 1 2 2 3 5 8 8 7 7 7 6 4 2 1 1 0 0 0 0 0 0 0 0 0 0 0 1 0 0 0
0 0 0 0 0 0 0 0 1 2 3 3 2 1 0 0 0 1 2 2 3 3 4 6 9 9 10 10 9 7 5 3 1 0 0 0 1 1 1 0 0 0 0 0 0 0 0 0 0
0 0 0 0 0 0 0 0 1 2 2 2 2 1 0 0 1 3 5 6 6 7 7 8 9 11 12 13 10 8 6 5 3 1 0 0 1 2 1 0 0 0 0 0 0 0 0 0 0
0 0 0 0 0 0 0 0 1 2 1 1 2 2 2 1 3 7 11 11 12 14 13 11 11 12 12 12 10 8 7 6 4 1 0 0 1 1 0 0 0 0 0 0 1 1 1 0 0
0 0 0 0 0 0 0 0 1 3 2 2 4 5 4 4 7 12 15 14 17 21 22 18 14 12 11 10 8 7 7 6 4 1 0 0 0 0 0 0 0 1 1 1 1 2 1 0 0
0 0 0 0 0 0 0 1 3 5 4 4 7 9 8 8 11 15 18 18 19 25 27 23 16 11 9 7 6 5 5 4 2 0 0 0 0 0 0 0 0 2 2 1 1 1 1 0 0
0 0 0 0 0 0 0 1 3 4 5 6 8 10 11 13 18 22 23 22 21 22 24 23 18 13 9 6 3 3 3 2 1 0 0 0 0 0 0 0 0 1 1 1 0 0 0 1 1
0 0 0 0 0 0 0 0 1 3 5 8 9 11 16 22 29 31 28 24 19 16 17 19 18 15 10 6 3 2 2 2 1 0 0 0 0 0 0 0 0 1 1 0 0 0 1 2 3
0 0 0 0 0 1 1 1 1 3 7 10 14 18 25 32 34 32 27 21 15 12 13 16 16 14 10 6 2 2 2 2 2 1 0 0 0 0 0 0 0 1 0 0 0 0 2 2 2
0 0 0 0 1 2 2 3 4 5 8 11 19 26 33 35 31 24 20 15 11 9 11 13 12 10 7 3 1 2 2 2 2 1 0 0 0 1 1 0 0 0 0 0 0 0 1 1 1
0 0 0 0 1 3 3 3 4 5 7 12 22 30 33 32 25 17 13 12 10 8 8 9 8 6 4 1 1 2 2 1 1 0 0 0 1 2 1 0 0 0 0 0 0 0 0 0 0
0 0 0 0 1 3 2 2 2 3 5 12 21 27 28 27 22 15 11 10 9 7 5 4 4 3 2 1 0 1 1 0 0 0 0 1 2 2 1 0 0 0 0 0 0 0 0 0 0
0 0 0 0 1 2 2 1 1 1 3 9 16 21 22 22 20 15 12 8 6 5 4 3 2 2 1 0 0 0 0 0 0 0 0 1 2 1 0 0 0 0 0 0 0 0 0 0 0
0 0 0 0 0 1 1 1 0 1 3 6 10 14 16 16 15 14 11 7 4 3 2 2 2 1 0 0 0 0 0 0 0 0 0 1 1 0 0 0 0 0 0 0 0 0 0 0 0
0 0 0 0 0 0 0 0 1 2 3 4 6 9 10 10 11 12 11 7 3 2 2 3 2 1 0 0 0 0 0 0 0 0 0 0 0 0 0 0 0 0 0 0 0 0 0 0 0
0 0 0 0 0 0 0 0 1 3 4 4 4 5 6 6 7 9 9 6 4 3 4 5 3 1 0 0 0 0 0 0 0 0 0 0 0 0 0 0 0 0 0 0 0 0 0 0 0
0 0 0 0 0 0 0 0 1 4 6 5 3 4 5 6 5 6 7 7 7 7 7 6 3 1 0 0 0 0 0 0 0 0 0 0 0 0 0 0 0 0 0 0 0 0 0 0 0
0 0 0 0 0 0 0 0 1 4 6 5 4 4 5 5 5 5 6 7 9 9 7 4 2 0 0 0 0 0 0 0 0 0 0 0 0 0 0 0 0 0 0 0 0 0 0 0 0
0 0 0 0 0 0 0 0 1 3 4 4 3 3 4 4 3 4 4 6 7 7 4 2 0 0 0 0 0 0 0 0 0 0 0 0 0 0 0 0 0 0 0 0 0 0 0 0 0
0 0 0 0 0 0 0 0 0 1 1 1 1 1 2 2 2 2 3 4 4 4 2 0 0 0 0 0 0 0 0 0 0 0 0 0 0 0 0 0 0 0 0 0 0 0 0 0 0
0 0 0 0 0 0 0 0 0 0 0 0 0 0 1 1 1 2 3 3 3 3 2 1 0 0 0 0 0 0 0 0 0 0 0 0 0 0 0 0 0 0 0 0 0 0 0 0 0
0 0 0 0 0 0 0 0 0 0 0 0 0 0 0 1 2 2 3 3 3 3 2 1 0 0 0 0 0 0 0 0 0 0 0 0 0 0 0 0 0 0 0 0 0 0 0 0 0
0 0 0 0 0 0 0 0 0 0 0 0 0 0 0 1 2 1 1 3 3 2 2 1 0 0 0 0 0 0 0 0 0 0 0 0 0 0 0 0 0 0 0 0 0 0 0 0 0
0 0 0 0 0 0 0 0 0 0 0 0 0 0 0 1 2 1 1 2 3 2 2 2 1 0 0 0 0 0 0 0 0 0 0 0 0 0 0 0 0 0 0 0 0 0 0 0 0
0 0 0 0 0 0 0 0 0 0 0 0 0 0 0 1 2 1 1 2 3 3 2 2 2 1 0 0 0 0 0 0 0 0 0 0 0 0 0 0 0 0 0 0 0 0 0 0 0
0 0 0 0 0 0 0 0 0 0 0 0 0 0 0 0 1 1 0 1 2 2 2 2 2 1 0 0 0 0 0 0 0 0 0 0 0 0 0 0 0 0 0 0 0 0 0 0 0
0 0 0 0 0 0 0 0 0 0 0 0 0 0 0 0 0 0 0 0 1 1 2 2 2 1 0 0 0 0 0 0 0 0 0 0 0 0 0 0 0 0 0 0 0 0 0 0 0
0 0 0 0 0 0 0 0 0 0 0 0 0 0 0 0 0 0 0 0 0 1 2 2 1 0 0 0 0 0 0 0 0 0 0 0 0 0 0 0 0 0 0 0 0 0 0 0 0
0 0 0 0 0 0 0 0 0 0 0 0 0 0 0 0 0 0 0 0 0 1 2 1 0 0 0 0 0 0 0 0 0 0 0 0 0 0 0 0 0 0 0 0 0 0 0 0 0
Wind_Speed
5 3 1 1 2 3 1 1 2 3 3 2 1 2 0 1 2 2 2 9 14 13 10 14 16 16 16 17 16 16 16 16 15 15 14 13 13 12 11 11 10 10 10 10 10 11 11 11 11
4 3 1 2 3 2 2 2 3 4 4 5 3 3 1 1 1 4 5 8 14 13 9 11 17 16 16 16 16 15 15 15 14 14 13 12 11 11 10 10 10 9 9 10 10 10 10 10 10
4 1 2 3 2 2 3 3 5 4 4 3 3 2 1 2 4 5 6 12 12 11 8 12 18 17 16 15 15 14 14 14 13 13 12 11 10 10 10 9 9 8 9 9 9 9 9 9 9
2 2 3 3 1 4 4 4 5 5 2 1 3 3 1 1 3 7 12 13 12 9 8 11 18 16 16 15 14 14 14 13 12 12 11 10 9 9 9 8 8 7 8 8 8 8 8 7 7
3 3 4 2 4 4 3 4 6 5 4 3 3 2 2 3 7 13 13 13 12 9 7 10 17 16 15 15 14 14 13 13 12 11 10 9 9 8 8 8 7 7 7 6 6 6 6 6 5
4 4 3 2 4 4 2 2 3 3 3 3 4 3 1 4 10 12 12 10 10 9 7 8 15 16 15 15 14 13 13 12 11 11 10 9 8 7 7 7 6 6 6 5 5 5 4 4 3
4 3 2 3 3 3 1 1 3 3 4 3 3 4 2 5 7 10 10 9 8 8 7 6 7 10 14 14 14 13 12 12 11 10 9 9 8 7 6 6 5 5 5 5 4 3 3 2 2
4 4 1 2 3 4 1 1 1 2 3 2 2 5 5 6 9 10 10 9 8 6 6 5 5 5 6 7 12 13 12 11 11 10 9 8 8 7 6 5 5 5 4 4 4 3 2 2 1
4 4 2 4 5 4 3 2 1 1 2 1 1 2 5 12 12 11 10 8 8 7 5 5 5 5 5 5 8 10 11 10 9 7 9 6 2 2 2 4 5 5 5 4 4 3 2 1 1
4 3 7 5 4 4 4 4 3 2 2 1 2 3 10 14 13 12 12 11 10 9 7 5 5 5 5 5 4 3 3 4 3 2 3 2 2 1 1 1 3 4 4 4 3 3 2 1 1
6 7 5 4 3 3 4 3 2 4 3 4 6 10 13 13 12 11 10 9 8 7 7 6 5 5 4 3 3 2 2 2 2 3 3 2 2 1 0 1 1 1 1 0 0 0 0 0 0
5 5 4 3 1 3 4 3 2 3 3 1 5 10 11 13 12 10 9 8 6 6 6 6 5 5 4 3 3 3 2 2 2 2 3 2 1 1 1 1 1 1 1 1 1 0 0 1 1
4 3 1 0 2 3 4 2 2 2 0 4 7 9 11 10 8 7 7 7 6 6 5 5 6 5 4 3 3 3 3 3 3 2 2 3 2 1 1 1 1 1 1 1 1 0 1 1 1
2 1 0 1 2 1 3 1 1 1 2 5 6 6 8 9 9 7 6 6 6 6 5 5 5 5 4 3 3 3 3 3 3 3 3 3 2 2 2 1 1 1 1 1 1 1 0 0 1
1 1 2 1 1 1 3 1 2 1 3 4 4 5 5 6 7 9 7 6 6 6 6 5 5 5 5 4 3 3 3 3 3 3 3 3 3 3 2 2 1 1 1 2 2 2 1 1 1
2 2 2 2 2 2 3 4 2 2 4 4 4 4 5 4 5 5 6 6 6 6 6 6 6 6 5 4 4 3 3 4 3 3 3 3 3 4 3 2 1 1 2 2 2 2 2 2 2
3 2 3 3 2 2 3 4 2 3 3 3 4 5 5 5 4 3 5 6 6 7 8 7 6 6 5 4 4 3 3 3 3 3 2 3 3 4 3 2 2 2 3 2 2 2 1 1 2
4 4 4 3 2 3 2 3 2 3 4 4 4 5 5 7 6 5 6 6 6 6 6 7 7 6 5 4 4 3 3 2 2 2 2 3 3 3 3 3 3 3 3 2 2 2 2 1 2
4 4 5 4 1 2 2 2 2 4 4 4 4 5 5 6 5 6 7 7 7 6 6 7 7 6 5 4 3 3 2 2 2 2 2 3 3 3 3 3 3 2 3 2 2 2 3 3 2
4 4 4 2 1 2 0 2 2 3 5 4 5 6 7 6 5 5 6 6 7 7 7 6 7 7 6 4 3 3 3 2 2 1 1 2 3 3 3 3 2 2 2 3 2 2 2 2 3
3 5 4 3 2 3 2 3 2 2 2 2 3 4 6 8 8 8 7 7 7 8 8 8 7 6 6 5 4 4 4 3 2 1 1 1 2 2 3 4 3 2 2 2 2 2 2 1 2
4 3 4 4 3 2 1 3 4 2 2 4 5 4 6 6 7 8 8 8 8 8 7 7 6 6 6 6 6 6 4 3 3 2 1 1 1 2 3 3 3 3 2 2 1 2 2 2 1
2 4 5 4 3 2 1 1 7 1 3 6 6 7 7 7 8 8 9 9 7 7 7 6 6 5 5 6 6 6 4 3 2 2 2 1 0 1 2 3 3 3 2 2 2 2 2 1 1
5 6 6 5 4 2 2 1 6 5 7 6 6 8 8 8 8 8 7 7 6 6 6 6 6 5 5 6 6 6 6 5 4 3 3 1 0 0 1 3 3 3 2 2 2 2 2 2 1
4 6 4 5 4 4 2 2 9 7 6 8 9 10 9 9 9 8 9 9 8 8 8 7 8 6 6 6 6 6 7 7 6 5 4 3 2 1 2 2 2 2 2 2 2 2 2 2 2
4 7 7 4 4 5 2 5 8 5 4 6 7 7 8 8 9 10 10 10 10 10 9 9 9 8 7 7 6 6 6 4 4 4 4 4 3 3 2 3 3 2 2 2 2 2 2 2 2
6 3 5 7 2 2 5 7 9 1 2 4 6 7 9 10 10 11 10 10 11 11 11 11 10 8 8 8 7 6 6 5 5 4 4 3 3 2 3 3 3 3 3 2 2 2 2 2 2
5 8 5 5 4 2 5 5 5 5 5 5 7 9 10 10 10 10 10 11 10 10 9 9 9 10 8 8 7 6 6 6 5 5 5 4 4 3 3 3 3 3 3 3 3 2 2 3 3
4 4 5 5 5 5 3 8 8 9 8 9 10 10 10 11 12 11 11 10 9 8 8 9 9 8 8 9 7 7 6 6 5 5 5 5 4 4 4 4 4 4 4 3 3 3 3 4 4
4 6 8 5 4 4 4 10 6 7 7 9 10 9 9 10 10 10 9 8 8 9 9 10 10 10 10 9 8 8 7 6 6 6 6 5 5 5 5 4 4 4 4 4 4 4 4 4 5
Wind_Direction
160 148 126 78 60 50 295 231 148 165 157 157 124 112 140 253 231 255 93 138 135 141 151 152 149 144 139 134 132 130 128 127 126 126 127 128 129 127 126 124 122 121 119 115 111 110 110 110 110
138 146 82 62 78 37 283 198 172 189 176 165 142 118 124 207 105 109 126 139 138 141 145 150 151 147 142 139 136 135 133 132 132 132 132 133 132 130 128 126 123 122 120 118 116 115 114 113 111
153 154 86 70 89 194 235 195 187 170 164 150 130 113 141 173 143 136 144 140 135 139 143 157 153 150 146 143 141 139 139 139 138 138 138 137 136 135 132 130 127 126 123 121 119 117 115 115 114
127 59 56 64 267 241 225 204 176 156 152 125 129 119 91 37 139 137 138 139 136 138 145 159 154 152 149 148 146 145 145 146 145 144 145 144 142 141 140 136 133 129 127 124 123 121 118 117 117
70 80 58 12 269 261 241 199 174 164 157 133 123 105 39 20 110 129 137 141 140 139 146 157 156 155 154 152 151 150 150 150 149 150 151 151 150 147 145 143 140 135 132 131 127 125 122 121 118
62 67 77 289 273 275 278 193 163 148 153 145 138 126 66 105 126 135 139 140 142 142 143 151 158 158 157 157 156 155 155 154 154 156 158 158 158 157 152 152 153 151 147 144 139 135 131 124 115
108 103 168 238 268 279 243 121 164 160 161 163 153 126 124 140 137 135 135 135 137 137 135 140 153 159 161 160 160 159 159 159 161 164 165 165 167 166 165 168 169 167 163 163 158 154 145 136 121
136 107 279 255 246 255 180 134 159 157 162 147 154 157 172 157 133 129 129 133 136 132 131 132 136 141 149 159 164 163 165 166 167 170 171 173 177 176 177 175 186 187 189 188 183 183 172 167 165
116 80 246 233 221 235 164 161 161 77 133 144 173 167 151 140 135 135 135 137 143 144 135 134 136 136 137 149 167 166 167 170 171 175 178 173 154 150 178 196 203 205 206 205 203 207 200 213 276
123 171 233 225 212 201 172 173 172 146 162 186 151 126 135 143 145 149 151 156 159 161 158 146 142 142 141 158 146 138 142 148 146 141 148 133 125 145 175 245 220 218 218 219 213 224 247 278 314
173 207 241 256 227 172 154 158 158 146 209 216 178 155 148 148 151 155 155 159 164 164 163 156 153 150 151 144 137 130 121 126 130 136 131 120 109 77 74 46 334 335 275 352 285 353 22 26 287
193 246 238 258 173 139 148 146 150 196 222 179 151 148 147 155 160 159 161 161 156 161 168 155 158 158 163 153 148 141 135 135 136 140 136 126 115 92 69 69 35 37 48 77 70 49 357 2 325
209 249 276 244 100 114 107 120 158 220 192 110 126 140 148 157 154 155 160 159 157 164 169 163 165 171 163 150 153 147 144 141 137 126 125 127 125 126 104 76 51 34 41 71 78 33 355 8 333
223 190 49 48 83 108 123 110 107 241 132 118 125 136 153 158 156 153 161 163 160 164 168 162 162 165 155 152 156 147 142 134 128 127 129 120 120 125 115 93 76 64 59 80 97 93 57 354 334
97 68 357 18 96 125 102 2 244 178 143 144 150 149 148 163 165 162 168 166 162 167 165 161 159 152 152 153 155 142 139 133 130 133 129 128 125 123 111 99 83 59 55 78 80 59 49 24 353
62 62 321 274 168 166 147 250 250 138 150 170 170 163 153 161 168 154 151 150 154 161 161 165 166 156 153 147 144 139 136 131 131 127 125 127 125 123 112 102 78 61 65 67 74 55 44 19 358
21 327 282 286 198 168 177 247 266 159 168 189 182 172 157 157 166 161 150 155 159 167 161 158 152 152 148 140 130 124 121 123 122 118 121 125 127 127 119 109 90 84 75 64 73 64 59 22 347
263 268 268 260 219 155 187 250 251 191 195 207 196 182 170 172 172 166 155 159 156 158 153 151 149 147 137 124 109 98 97 100 104 116 129 130 125 125 114 100 89 86 82 67 64 69 51 33 338
236 245 262 266 180 151 206 248 230 203 209 212 201 195 193 179 167 161 161 156 150 149 151 155 153 152 145 138 135 130 134 127 118 139 150 143 136 132 117 107 97 91 90 83 77 84 57 27 359
228 250 255 283 95 115 185 283 255 204 214 212 203 203 197 172 161 166 159 155 157 161 164 164 163 161 161 152 139 131 125 122 119 120 132 146 150 152 140 131 125 114 102 85 68 79 79 28 22
235 208 217 197 83 50 27 326 276 244 226 223 224 206 184 178 176 174 168 163 163 169 172 174 171 164 161 145 119 99 82 73 79 104 153 169 168 170 150 147 138 131 125 122 106 97 106 79 20
248 239 169 136 110 327 29 293 282 241 249 232 223 201 190 186 179 177 175 173 177 176 170 168 168 162 159 151 148 147 151 162 184 174 168 142 143 164 161 152 147 143 138 136 135 119 117 123 67
180 71 86 93 106 26 7 227 285 274 244 239 219 202 195 189 185 184 183 181 178 172 168 167 162 163 161 158 156 148 146 153 140 134 141 137 101 146 159 156 154 152 151 151 137 128 131 138 155
124 76 61 56 66 341 274 192 280 234 217 218 209 199 195 188 188 190 184 171 172 170 167 163 165 172 164 160 159 161 159 155 150 160 167 169 156 169 172 164 164 165 168 175 172 163 162 168 167
93 89 29 356 5 267 254 228 254 246 219 201 197 198 193 187 185 183 180 180 182 181 178 170 173 178 172 166 169 171 167 165 172 175 180 175 177 195 202 174 175 180 191 191 178 178 194 190 190
174 144 158 205 238 283 302 248 256 257 228 202 195 190 182 184 188 190 191 190 190 188 182 178 182 182 176 175 178 174 167 166 175 177 174 182 190 198 196 184 188 200 201 195 183 195 215 207 214
141 168 156 127 138 305 289 285 300 257 221 197 193 190 193 193 194 198 197 196 194 190 188 186 185 184 182 181 175 173 173 175 179 175 171 178 188 194 192 192 197 207 206 200 188 210 230 221 230
134 141 108 117 143 263 295 281 255 244 221 202 197 201 203 197 197 202 201 201 198 194 189 183 185 189 184 179 179 181 182 182 176 170 182 190 194 192 186 199 205 212 214 207 199 219 229 229 241
121 112 110 116 149 160 249 272 229 211 202 199 207 206 203 199 199 201 203 201 194 187 182 183 185 183 180 182 182 177 181 181 177 184 195 194 195 195 202 207 211 219 223 217 212 230 231 234 246
165 165 147 152 202 175 185 266 266 217 210 200 208 210 207 204 203 200 198 191 185 187 186 186 186 187 188 183 179 182 180 176 183 196 201 196 202 206 208 208 215 225 227 221 221 238 239 238 249